Time,TemperatureF,DewpointF,PressureIn,WindDirection,WindDirectionDegrees,WindSpeedMPH,WindSpeedGustMPH,Humidity,HourlyPrecipIn,Conditions,Clouds,dailyrainin,SoftwareType,DateUTC
2013-10-17 00:00:00,82.6,77.6,29.88,ENE,76,0.0,7.0,85,0.00,,,0.00,VWS V15.00,2013-10-17 06:00:00,
2013-10-17 00:02:00,82.5,77.2,29.88,ENE,71,8.0,8.0,84,0.00,,,0.00,VWS V14.01,2013-10-17 06:02:00,
2013-10-17 00:07:00,82.0,77.1,29.87,NE,49,2.0,9.0,85,0.00,,,0.00,VWS V14.01,2013-10-17 06:07:00,
2013-10-17 00:12:00,81.9,76.9,29.87,East,86,5.0,9.0,85,0.00,,,0.00,VWS V14.01,2013-10-17 06:12:00,
2013-10-17 00:17:00,82.0,76.7,29.87,ENE,70,7.0,13.0,84,0.00,,,0.00,VWS V14.01,2013-10-17 06:17:00,
2013-10-17 00:22:00,81.5,76.2,29.87,ESE,110,5.0,13.0,84,0.00,,,0.00,VWS V14.01,2013-10-17 06:22:00,
2013-10-17 00:27:00,80.6,75.3,29.87,ENE,58,5.0,13.0,84,0.00,,,0.00,VWS V14.01,2013-10-17 06:27:00,
2013-10-17 00:30:00,80.3,75.0,29.86,ENE,69,1.0,13.0,84,0.00,,,0.00,VWS V15.00,2013-10-17 06:30:00,
2013-10-17 00:32:00,80.3,75.0,29.86,ESE,108,1.0,3.0,84,0.00,,,0.00,VWS V14.01,2013-10-17 06:32:00,
2013-10-17 00:37:00,80.3,75.0,29.87,ENE,70,1.0,4.0,84,0.00,,,0.00,VWS V14.01,2013-10-17 06:37:00,
2013-10-17 00:42:00,80.5,75.6,29.87,NE,51,0.0,4.0,85,0.00,,,0.00,VWS V14.01,2013-10-17 06:42:00,
2013-10-17 00:47:00,80.5,75.9,29.87,NE,49,0.0,4.0,86,0.00,,,0.00,VWS V14.01,2013-10-17 06:47:00,
2013-10-17 00:52:00,80.5,75.9,29.87,ENE,59,0.0,4.0,86,0.00,,,0.00,VWS V14.01,2013-10-17 06:52:00,
2013-10-17 00:57:00,80.7,76.5,29.87,ENE,57,0.0,4.0,87,0.00,,,0.00,VWS V14.01,2013-10-17 06:57:00,
2013-10-17 01:00:00,80.8,76.9,29.87,ENE,60,0.0,4.0,88,0.00,,,0.00,VWS V15.00,2013-10-17 07:00:00,
2013-10-17 01:02:00,80.8,76.9,29.87,ENE,60,0.0,0.0,88,0.00,,,0.00,VWS V14.01,2013-10-17 07:02:00,
2013-10-17 01:07:00,80.9,77.0,29.87,ENE,61,0.0,1.0,88,0.00,,,0.00,VWS V14.01,2013-10-17 07:07:00,
2013-10-17 01:12:00,80.8,76.9,29.87,ENE,60,0.0,1.0,88,0.00,,,0.00,VWS V14.01,2013-10-17 07:12:00,
2013-10-17 01:16:00,80.6,77.1,29.87,ENE,60,0.0,1.0,89,0.00,,,0.00,VWS V14.01,2013-10-17 07:16:00,
2013-10-17 01:21:00,80.8,77.3,29.87,ENE,77,0.0,1.0,89,0.00,,,0.00,VWS V14.01,2013-10-17 07:21:00,
2013-10-17 01:26:00,81.1,77.6,29.87,East,100,4.0,4.0,89,0.00,,,0.00,VWS V14.01,2013-10-17 07:26:00,
2013-10-17 01:30:00,81.6,78.1,29.87,East,90,3.0,8.0,89,0.00,,,0.00,VWS V15.00,2013-10-17 07:30:00,
2013-10-17 01:31:00,81.7,78.2,29.87,ENE,74,4.0,6.0,89,0.00,,,0.00,VWS V14.01,2013-10-17 07:31:00,
2013-10-17 01:36:00,82.0,78.1,29.86,East,86,4.0,6.0,88,0.00,,,0.00,VWS V14.01,2013-10-17 07:36:00,
2013-10-17 01:41:00,82.1,78.5,29.86,ENE,72,0.0,6.0,89,0.00,,,0.00,VWS V14.01,2013-10-17 07:41:00,
2013-10-17 01:46:00,82.0,78.1,29.86,East,94,1.0,6.0,88,0.00,,,0.00,VWS V14.01,2013-10-17 07:46:00,
2013-10-17 01:51:00,81.9,78.0,29.86,ENE,72,0.0,6.0,88,0.00,,,0.00,VWS V14.01,2013-10-17 07:51:00,
2013-10-17 01:56:00,81.8,77.9,29.86,NE,54,1.0,6.0,88,0.00,,,0.00,VWS V14.01,2013-10-17 07:56:00,
2013-10-17 02:00:00,81.8,77.6,29.86,ENE,74,0.0,6.0,87,0.00,,,0.00,VWS V15.00,2013-10-17 08:00:00,
2013-10-17 02:01:00,81.8,77.6,29.86,ENE,62,1.0,2.0,87,0.00,,,0.00,VWS V14.01,2013-10-17 08:01:00,
2013-10-17 02:07:00,81.8,77.6,29.85,ENE,61,1.0,3.0,87,0.00,,,0.00,VWS V14.01,2013-10-17 08:07:00,
2013-10-17 02:08:00,81.8,77.6,29.85,ENE,60,1.0,3.0,87,0.00,,,0.00,VWS V14.01,2013-10-17 08:08:00,
2013-10-17 02:13:00,81.9,77.7,29.85,ENE,71,0.0,3.0,87,0.00,,,0.00,VWS V14.01,2013-10-17 08:13:00,
2013-10-17 02:18:00,81.8,77.6,29.85,ENE,72,1.0,3.0,87,0.00,,,0.00,VWS V14.01,2013-10-17 08:18:00,
2013-10-17 02:23:00,81.8,77.6,29.86,ENE,69,2.0,4.0,87,0.00,,,0.00,VWS V14.01,2013-10-17 08:23:00,
2013-10-17 02:28:00,81.9,77.7,29.85,ENE,73,0.0,4.0,87,0.00,,,0.00,VWS V14.01,2013-10-17 08:28:00,
2013-10-17 02:30:00,81.9,77.7,29.85,ENE,68,0.0,4.0,87,0.00,,,0.00,VWS V15.00,2013-10-17 08:30:00,
2013-10-17 02:33:00,81.9,77.7,29.85,NE,41,2.0,4.0,87,0.00,,,0.00,VWS V14.01,2013-10-17 08:33:00,
2013-10-17 02:38:00,81.9,77.7,29.85,ENE,59,2.0,5.0,87,0.00,,,0.00,VWS V14.01,2013-10-17 08:38:00,
2013-10-17 02:43:00,82.0,77.8,29.85,ENE,60,3.0,7.0,87,0.00,,,0.00,VWS V14.01,2013-10-17 08:43:00,
2013-10-17 02:48:00,82.1,77.5,29.85,ENE,70,3.0,8.0,86,0.00,,,0.00,VWS V14.01,2013-10-17 08:48:00,
2013-10-17 02:53:00,82.1,77.5,29.85,NE,51,5.0,8.0,86,0.00,,,0.00,VWS V14.01,2013-10-17 08:53:00,
2013-10-17 02:58:00,82.0,77.8,29.85,ENE,62,1.0,8.0,87,0.00,,,0.00,VWS V14.01,2013-10-17 08:58:00,
2013-10-17 03:00:00,82.0,77.8,29.85,NE,52,5.0,11.0,87,0.00,,,0.00,VWS V15.00,2013-10-17 09:00:00,
2013-10-17 03:03:00,81.9,78.0,29.85,NE,56,7.0,7.0,88,0.00,,,0.00,VWS V14.01,2013-10-17 09:03:00,
2013-10-17 03:08:00,81.6,78.1,29.85,NNE,18,0.0,7.0,89,0.00,,,0.00,VWS V14.01,2013-10-17 09:08:00,
2013-10-17 03:13:00,81.3,78.1,29.85,North,8,0.0,7.0,90,0.00,,,0.00,VWS V14.01,2013-10-17 09:13:00,
2013-10-17 03:18:00,81.1,77.9,29.85,North,8,0.0,7.0,90,0.00,,,0.00,VWS V14.01,2013-10-17 09:18:00,
2013-10-17 03:23:00,81.0,77.8,29.84,NE,53,0.0,7.0,90,0.00,,,0.00,VWS V14.01,2013-10-17 09:23:00,
2013-10-17 03:28:00,80.9,77.7,29.84,NE,49,2.0,7.0,90,0.00,,,0.00,VWS V14.01,2013-10-17 09:28:00,
2013-10-17 03:30:00,81.0,77.8,29.84,NE,51,1.0,7.0,90,0.00,,,0.00,VWS V15.00,2013-10-17 09:30:00,
2013-10-17 03:33:00,81.1,77.9,29.84,ENE,58,1.0,2.0,90,0.00,,,0.00,VWS V14.01,2013-10-17 09:33:00,
2013-10-17 03:38:00,81.2,77.7,29.84,NNE,33,1.0,3.0,89,0.00,,,0.00,VWS V14.01,2013-10-17 09:38:00,
2013-10-17 03:43:00,81.3,77.8,29.84,ENE,74,0.0,3.0,89,0.00,,,0.00,VWS V14.01,2013-10-17 09:43:00,
2013-10-17 03:48:00,81.4,77.8,29.84,NE,53,0.0,6.0,89,0.00,,,0.00,VWS V14.01,2013-10-17 09:48:00,
2013-10-17 03:53:00,81.5,78.3,29.85,NE,52,2.0,6.0,90,0.00,,,0.00,VWS V14.01,2013-10-17 09:53:00,
2013-10-17 03:58:00,81.5,77.9,29.84,ENE,69,1.0,6.0,89,0.00,,,0.00,VWS V14.01,2013-10-17 09:58:00,
2013-10-17 04:00:00,81.5,77.9,29.84,ENE,69,1.0,6.0,89,0.00,,,0.00,VWS V15.00,2013-10-17 10:00:00,
2013-10-17 04:03:00,81.5,77.9,29.84,NNE,30,0.0,3.0,89,0.00,,,0.00,VWS V14.01,2013-10-17 10:03:00,
2013-10-17 04:08:00,81.4,77.8,29.84,ENE,60,1.0,3.0,89,0.00,,,0.00,VWS V14.01,2013-10-17 10:08:00,
2013-10-17 04:13:00,81.4,77.5,29.85,ENE,61,1.0,3.0,88,0.00,,,0.00,VWS V14.01,2013-10-17 10:13:00,
2013-10-17 04:18:00,81.2,76.3,29.85,NE,54,1.0,4.0,85,0.00,,,0.00,VWS V14.01,2013-10-17 10:18:00,
2013-10-17 04:23:00,81.4,75.7,29.85,NNE,21,0.0,4.0,83,0.00,,,0.00,VWS V14.01,2013-10-17 10:23:00,
2013-10-17 04:28:00,81.5,76.2,29.85,NE,46,1.0,4.0,84,0.00,,,0.00,VWS V14.01,2013-10-17 10:28:00,
2013-10-17 04:30:00,81.5,76.6,29.85,NE,49,0.0,4.0,85,0.00,,,0.00,VWS V15.00,2013-10-17 10:30:00,
2013-10-17 04:33:00,81.4,76.5,29.85,NE,41,0.0,1.0,85,0.00,,,0.00,VWS V14.01,2013-10-17 10:33:00,
2013-10-17 04:38:00,81.2,76.6,29.86,NNE,15,0.0,1.0,86,0.00,,,0.00,VWS V14.01,2013-10-17 10:38:00,
2013-10-17 04:43:00,81.1,76.9,29.86,NE,46,0.0,2.0,87,0.00,,,0.00,VWS V14.01,2013-10-17 10:43:00,
2013-10-17 04:48:00,81.2,77.0,29.86,NE,39,2.0,4.0,87,0.00,,,0.00,VWS V14.01,2013-10-17 10:48:00,
2013-10-17 04:53:00,81.2,77.0,29.86,NE,41,1.0,4.0,87,0.00,,,0.00,VWS V14.01,2013-10-17 10:53:00,
2013-10-17 04:58:00,81.4,77.2,29.86,East,83,2.0,4.0,87,0.00,,,0.00,VWS V14.01,2013-10-17 10:58:00,
2013-10-17 05:00:00,81.5,77.3,29.86,ENE,76,0.0,4.0,87,0.00,,,0.00,VWS V15.00,2013-10-17 11:00:00,
2013-10-17 05:03:00,81.5,77.3,29.86,ENE,60,1.0,1.0,87,0.00,,,0.00,VWS V14.01,2013-10-17 11:03:00,
2013-10-17 05:08:00,81.5,76.9,29.86,ENE,67,0.0,2.0,86,0.00,,,0.00,VWS V14.01,2013-10-17 11:08:00,
2013-10-17 05:13:00,81.4,77.2,29.87,NE,41,0.0,2.0,87,0.00,,,0.00,VWS V14.01,2013-10-17 11:13:00,
2013-10-17 05:18:00,81.2,77.0,29.87,ENE,58,0.0,2.0,87,0.00,,,0.00,VWS V14.01,2013-10-17 11:18:00,
2013-10-17 05:23:00,81.0,76.8,29.87,NE,56,0.0,2.0,87,0.00,,,0.00,VWS V14.01,2013-10-17 11:23:00,
2013-10-17 05:28:00,80.9,77.0,29.87,NNE,24,0.0,2.0,88,0.00,,,0.00,VWS V14.01,2013-10-17 11:28:00,
2013-10-17 05:30:00,80.8,76.9,29.88,NNE,21,0.0,2.0,88,0.00,,,0.00,VWS V15.00,2013-10-17 11:30:00,
2013-10-17 05:33:00,80.6,76.7,29.88,NNW,344,0.0,1.0,88,0.00,,,0.00,VWS V14.01,2013-10-17 11:33:00,
2013-10-17 05:38:00,80.3,76.8,29.88,NNW,345,0.0,1.0,89,0.00,,,0.00,VWS V14.01,2013-10-17 11:38:00,
2013-10-17 05:43:00,80.1,76.6,29.88,NNW,347,0.0,1.0,89,0.00,,,0.00,VWS V14.01,2013-10-17 11:43:00,
2013-10-17 05:48:00,80.1,76.9,29.88,North,8,1.0,1.0,90,0.00,,,0.00,VWS V14.01,2013-10-17 11:48:00,
2013-10-17 05:53:00,80.3,76.8,29.88,NE,47,1.0,1.0,89,0.00,,,0.00,VWS V14.01,2013-10-17 11:53:00,
2013-10-17 05:58:00,80.6,76.7,29.89,ENE,73,2.0,4.0,88,0.00,,,0.00,VWS V14.01,2013-10-17 11:58:00,
2013-10-17 06:00:00,81.1,76.9,29.89,NE,37,4.0,5.0,87,0.00,,,0.00,VWS V15.00,2013-10-17 12:00:00,
2013-10-17 06:03:00,81.4,76.8,29.89,NE,51,0.0,5.0,86,0.00,,,0.00,VWS V14.01,2013-10-17 12:03:00,
2013-10-17 06:08:00,82.1,77.2,29.89,ENE,70,1.0,5.0,85,0.00,,,0.00,VWS V14.01,2013-10-17 12:08:00,
2013-10-17 06:13:00,82.6,77.3,29.89,ENE,70,1.0,5.0,84,0.00,,,0.00,VWS V14.01,2013-10-17 12:13:00,
2013-10-17 06:18:00,83.0,77.3,29.89,ENE,70,2.0,6.0,83,0.00,,,0.00,VWS V14.01,2013-10-17 12:18:00,
2013-10-17 06:23:00,83.4,77.3,29.89,NE,56,2.0,6.0,82,0.00,,,0.00,VWS V14.01,2013-10-17 12:23:00,
2013-10-17 06:28:00,83.7,77.6,29.89,East,93,0.0,6.0,82,0.00,,,0.00,VWS V14.01,2013-10-17 12:28:00,
2013-10-17 06:30:00,84.0,77.5,29.90,ENE,72,1.0,6.0,81,0.00,,,0.00,VWS V15.00,2013-10-17 12:30:00,
2013-10-17 06:33:00,84.2,77.7,29.90,ENE,71,0.0,3.0,81,0.00,,,0.00,VWS V14.01,2013-10-17 12:33:00,
2013-10-17 06:38:00,84.7,77.8,29.90,ENE,75,2.0,3.0,80,0.00,,,0.00,VWS V14.01,2013-10-17 12:38:00,
2013-10-17 06:43:00,85.0,78.1,29.90,East,94,2.0,6.0,80,0.00,,,0.00,VWS V14.01,2013-10-17 12:43:00,
2013-10-17 06:47:00,85.1,77.5,29.90,ENE,72,3.0,7.0,78,0.00,,,0.00,VWS V14.01,2013-10-17 12:47:00,
2013-10-17 06:52:00,85.2,77.6,29.90,ENE,77,4.0,7.0,78,0.00,,,0.00,VWS V14.01,2013-10-17 12:52:00,
2013-10-17 06:57:00,85.2,77.2,29.91,ENE,58,5.0,7.0,77,0.00,,,0.00,VWS V14.01,2013-10-17 12:57:00,
2013-10-17 07:00:00,85.2,77.2,29.91,ESE,104,1.0,8.0,77,0.00,,,0.00,VWS V15.00,2013-10-17 13:00:00,
2013-10-17 07:02:00,85.3,77.3,29.91,ESE,107,2.0,4.0,77,0.00,,,0.00,VWS V14.01,2013-10-17 13:02:00,
2013-10-17 07:07:00,85.7,77.7,29.91,ESE,109,1.0,5.0,77,0.00,,,0.00,VWS V14.01,2013-10-17 13:07:00,
2013-10-17 07:12:00,85.4,78.5,29.91,ESE,103,2.0,5.0,80,0.00,,,0.00,VWS V14.01,2013-10-17 13:12:00,
2013-10-17 07:17:00,85.7,79.6,29.91,ESE,105,3.0,5.0,82,0.00,,,0.00,VWS V14.01,2013-10-17 13:17:00,
2013-10-17 07:22:00,86.2,79.7,29.92,SSE,152,0.0,5.0,81,0.00,,,0.00,VWS V14.01,2013-10-17 13:22:00,
2013-10-17 07:27:00,86.6,80.1,29.92,ESE,112,2.0,5.0,81,0.00,,,0.00,VWS V14.01,2013-10-17 13:27:00,
2013-10-17 07:30:00,86.9,80.0,29.92,SE,135,0.0,5.0,80,0.00,,,0.00,VWS V15.00,2013-10-17 13:30:00,
2013-10-17 07:32:00,87.0,79.7,29.92,SE,131,0.0,3.0,79,0.00,,,0.00,VWS V14.01,2013-10-17 13:32:00,
2013-10-17 07:37:00,87.0,79.3,29.92,ESE,122,0.0,3.0,78,0.00,,,0.00,VWS V14.01,2013-10-17 13:37:00,
2013-10-17 07:42:00,87.3,80.0,29.92,ENE,75,2.0,4.0,79,0.00,,,0.00,VWS V14.01,2013-10-17 13:42:00,
2013-10-17 07:47:00,87.4,79.7,29.92,East,91,1.0,5.0,78,0.00,,,0.00,VWS V14.01,2013-10-17 13:47:00,
2013-10-17 07:52:00,88.2,80.1,29.92,ESE,107,0.0,5.0,77,0.00,,,0.00,VWS V14.01,2013-10-17 13:52:00,
2013-10-17 07:57:00,88.3,79.8,29.92,SSE,160,2.0,5.0,76,0.00,,,0.00,VWS V14.01,2013-10-17 13:57:00,
2013-10-17 08:00:00,88.1,79.6,29.92,East,98,2.0,5.0,76,0.00,,,0.00,VWS V15.00,2013-10-17 14:00:00,
2013-10-17 08:02:00,88.0,79.5,29.92,ESE,109,2.0,3.0,76,0.00,,,0.00,VWS V14.01,2013-10-17 14:02:00,
2013-10-17 08:07:00,88.3,79.8,29.92,ESE,112,2.0,3.0,76,0.00,,,0.00,VWS V14.01,2013-10-17 14:07:00,
2013-10-17 08:12:00,88.5,79.6,29.92,SSE,153,1.0,4.0,75,0.00,,,0.00,VWS V14.01,2013-10-17 14:12:00,
2013-10-17 08:17:00,88.8,79.4,29.93,SE,133,2.0,4.0,74,0.00,,,0.00,VWS V14.01,2013-10-17 14:17:00,
2013-10-17 08:22:00,89.2,80.2,29.93,SE,131,2.0,5.0,75,0.00,,,0.00,VWS V14.01,2013-10-17 14:22:00,
2013-10-17 08:27:00,89.6,80.2,29.93,East,101,3.0,5.0,74,0.00,,,0.00,VWS V14.01,2013-10-17 14:27:00,
2013-10-17 08:30:00,89.5,79.7,29.93,SE,143,3.0,5.0,73,0.00,,,0.00,VWS V15.00,2013-10-17 14:30:00,
2013-10-17 08:32:00,89.4,80.0,29.93,SE,139,2.0,4.0,74,0.00,,,0.00,VWS V14.01,2013-10-17 14:32:00,
2013-10-17 08:37:00,88.8,79.4,29.93,ENE,70,3.0,8.0,74,0.00,,,0.00,VWS V14.01,2013-10-17 14:37:00,
2013-10-17 08:42:00,88.5,79.2,29.93,SE,133,4.0,8.0,74,0.00,,,0.00,VWS V14.01,2013-10-17 14:42:00,
2013-10-17 08:47:00,88.5,80.0,29.93,ESE,122,3.0,8.0,76,0.00,,,0.00,VWS V14.01,2013-10-17 14:47:00,
2013-10-17 08:52:00,89.3,80.3,29.93,SE,133,0.0,8.0,75,0.00,,,0.00,VWS V14.01,2013-10-17 14:52:00,
2013-10-17 08:57:00,89.8,80.4,29.93,ESE,117,2.0,8.0,74,0.00,,,0.00,VWS V14.01,2013-10-17 14:57:00,
2013-10-17 09:00:00,89.9,80.1,29.93,ESE,120,1.0,8.0,73,0.00,,,0.00,VWS V15.00,2013-10-17 15:00:00,
2013-10-17 09:02:00,89.9,80.1,29.93,East,100,0.0,3.0,73,0.00,,,0.00,VWS V14.01,2013-10-17 15:02:00,
2013-10-17 09:07:00,90.1,79.9,29.94,South,174,3.0,4.0,72,0.00,,,0.00,VWS V14.01,2013-10-17 15:07:00,
2013-10-17 09:12:00,90.2,79.5,29.94,SSE,163,1.0,4.0,71,0.00,,,0.00,VWS V14.01,2013-10-17 15:12:00,
2013-10-17 09:17:00,90.3,79.6,29.94,SSE,152,2.0,4.0,71,0.00,,,0.00,VWS V14.01,2013-10-17 15:17:00,
2013-10-17 09:22:00,89.3,78.7,29.93,SSW,204,5.0,5.0,71,0.00,,,0.00,VWS V14.01,2013-10-17 15:22:00,
2013-10-17 09:27:00,88.1,78.4,29.93,SSE,162,0.0,5.0,73,0.00,,,0.00,VWS V14.01,2013-10-17 15:27:00,
2013-10-17 09:30:00,88.1,78.8,29.93,SW,228,1.0,5.0,74,0.00,,,0.00,VWS V15.00,2013-10-17 15:30:00,
2013-10-17 09:32:00,88.3,79.0,29.93,SSW,203,0.0,1.0,74,0.00,,,0.00,VWS V14.01,2013-10-17 15:32:00,
2013-10-17 09:37:00,89.5,79.7,29.93,ESE,120,0.0,2.0,73,0.00,,,0.00,VWS V14.01,2013-10-17 15:37:00,
2013-10-17 09:42:00,91.0,79.9,29.93,ENE,58,1.0,2.0,70,0.00,,,0.00,VWS V14.01,2013-10-17 15:42:00,
2013-10-17 09:47:00,90.9,78.9,29.93,SSE,156,2.0,4.0,68,0.00,,,0.00,VWS V14.01,2013-10-17 15:47:00,
2013-10-17 09:52:00,90.7,80.0,29.93,East,94,1.0,5.0,71,0.00,,,0.00,VWS V14.01,2013-10-17 15:52:00,
2013-10-17 09:57:00,89.6,78.9,29.93,WSW,242,0.0,5.0,71,0.00,,,0.00,VWS V14.01,2013-10-17 15:57:00,
2013-10-17 10:00:00,89.6,79.8,29.93,ESE,121,3.0,6.0,73,0.00,,,0.00,VWS V15.00,2013-10-17 16:00:00,
2013-10-17 10:02:00,90.0,80.2,29.93,SE,135,2.0,6.0,73,0.00,,,0.00,VWS V14.01,2013-10-17 16:02:00,
2013-10-17 10:07:00,90.3,80.1,29.93,South,185,2.0,7.0,72,0.00,,,0.00,VWS V14.01,2013-10-17 16:07:00,
2013-10-17 10:12:00,90.9,79.3,29.92,ESE,118,2.0,7.0,69,0.00,,,0.00,VWS V14.01,2013-10-17 16:12:00,
2013-10-17 10:17:00,91.3,80.2,29.93,SE,138,0.0,7.0,70,0.00,,,0.00,VWS V14.01,2013-10-17 16:17:00,
2013-10-17 10:22:00,91.9,79.8,29.92,ENE,75,0.0,7.0,68,0.00,,,0.00,VWS V14.01,2013-10-17 16:22:00,
2013-10-17 10:27:00,91.0,79.0,29.92,SSE,156,0.0,7.0,68,0.00,,,0.00,VWS V14.01,2013-10-17 16:27:00,
2013-10-17 10:30:00,90.8,79.2,29.92,SSE,159,2.0,7.0,69,0.00,,,0.00,VWS V15.00,2013-10-17 16:30:00,
2013-10-17 10:32:00,91.1,79.5,29.92,East,94,0.0,2.0,69,0.00,,,0.00,VWS V14.01,2013-10-17 16:32:00,
2013-10-17 10:37:00,92.1,79.6,29.92,SSE,166,0.0,2.0,67,0.00,,,0.00,VWS V14.01,2013-10-17 16:37:00,
2013-10-17 10:42:00,91.6,77.7,29.91,ENE,58,4.0,6.0,64,0.00,,,0.00,VWS V14.01,2013-10-17 16:42:00,
2013-10-17 10:47:00,89.4,77.4,29.91,ENE,70,6.0,7.0,68,0.00,,,0.00,VWS V14.01,2013-10-17 16:47:00,
2013-10-17 10:52:00,88.5,77.9,29.91,ENE,63,4.0,7.0,71,0.00,,,0.00,VWS V14.01,2013-10-17 16:52:00,
2013-10-17 10:57:00,87.8,78.1,29.91,East,89,6.0,10.0,73,0.00,,,0.00,VWS V14.01,2013-10-17 16:57:00,
2013-10-17 11:00:00,87.2,77.5,29.91,NNW,330,2.0,11.0,73,0.00,,,0.00,VWS V15.00,2013-10-17 17:00:00,
2013-10-17 11:02:00,87.0,78.1,29.91,East,89,3.0,4.0,75,0.00,,,0.00,VWS V14.01,2013-10-17 17:02:00,
2013-10-17 11:07:00,87.5,78.6,29.90,ENE,65,2.0,7.0,75,0.00,,,0.00,VWS V14.01,2013-10-17 17:07:00,
2013-10-17 11:12:00,88.4,78.7,29.90,NE,54,6.0,7.0,73,0.00,,,0.00,VWS V14.01,2013-10-17 17:12:00,
2013-10-17 11:17:00,88.3,78.1,29.90,ESE,121,1.0,7.0,72,0.00,,,0.00,VWS V14.01,2013-10-17 17:17:00,
2013-10-17 11:22:00,88.3,77.7,29.89,ENE,75,4.0,7.0,71,0.00,,,0.00,VWS V14.01,2013-10-17 17:22:00,
2013-10-17 11:27:00,88.8,77.8,29.89,East,82,6.0,7.0,70,0.00,,,0.00,VWS V14.01,2013-10-17 17:27:00,
2013-10-17 11:30:00,88.3,77.3,29.89,ESE,105,4.0,8.0,70,0.00,,,0.00,VWS V15.00,2013-10-17 17:30:00,
2013-10-17 11:32:00,88.0,77.4,29.89,ENE,76,4.0,5.0,71,0.00,,,0.00,VWS V14.01,2013-10-17 17:32:00,
2013-10-17 11:37:00,87.8,77.2,29.89,East,80,4.0,6.0,71,0.00,,,0.00,VWS V14.01,2013-10-17 17:37:00,
2013-10-17 11:42:00,88.1,77.5,29.88,NE,52,9.0,9.0,71,0.00,,,0.00,VWS V14.01,2013-10-17 17:42:00,
2013-10-17 11:47:00,87.8,77.2,29.88,ENE,68,2.0,9.0,71,0.00,,,0.00,VWS V14.01,2013-10-17 17:47:00,
2013-10-17 11:53:00,87.8,77.7,29.88,ESE,112,3.0,9.0,72,0.00,,,0.00,VWS V14.01,2013-10-17 17:53:00,
2013-10-17 11:58:00,87.1,77.4,29.87,ENE,69,8.0,9.0,73,0.00,,,0.00,VWS V14.01,2013-10-17 17:58:00,
2013-10-17 12:00:00,86.8,77.5,29.87,East,96,4.0,10.0,74,0.00,,,0.00,VWS V15.00,2013-10-17 18:00:00,
2013-10-17 12:03:00,86.8,77.5,29.87,NE,53,2.0,7.0,74,0.00,,,0.00,VWS V14.01,2013-10-17 18:03:00,
2013-10-17 12:07:00,86.9,77.2,29.87,ESE,106,5.0,8.0,73,0.00,,,0.00,VWS V14.01,2013-10-17 18:07:00,
2013-10-17 12:12:00,86.7,77.4,29.86,ENE,71,5.0,8.0,74,0.00,,,0.00,VWS V14.01,2013-10-17 18:12:00,
2013-10-17 12:17:00,87.8,78.1,29.86,ESE,105,0.0,8.0,73,0.00,,,0.00,VWS V14.01,2013-10-17 18:17:00,
2013-10-17 12:22:00,87.7,78.0,29.86,NNE,18,0.0,9.0,73,0.00,,,0.00,VWS V14.01,2013-10-17 18:22:00,
2013-10-17 12:27:00,87.7,77.6,29.86,ENE,70,6.0,9.0,72,0.00,,,0.00,VWS V14.01,2013-10-17 18:27:00,
2013-10-17 12:30:00,87.7,78.0,29.86,East,98,4.0,9.0,73,0.00,,,0.00,VWS V15.00,2013-10-17 18:30:00,
2013-10-17 12:32:00,87.6,77.9,29.86,ENE,77,4.0,7.0,73,0.00,,,0.00,VWS V14.01,2013-10-17 18:32:00,
2013-10-17 12:37:00,87.4,78.1,29.86,ENE,61,8.0,9.0,74,0.00,,,0.00,VWS V14.01,2013-10-17 18:37:00,
2013-10-17 12:42:00,87.4,78.1,29.85,ENE,72,6.0,10.0,74,0.00,,,0.00,VWS V14.01,2013-10-17 18:42:00,
2013-10-17 12:47:00,87.4,78.1,29.85,ENE,61,3.0,10.0,74,0.00,,,0.00,VWS V14.01,2013-10-17 18:47:00,
2013-10-17 12:52:00,87.8,78.1,29.85,ENE,73,4.0,10.0,73,0.00,,,0.00,VWS V14.01,2013-10-17 18:52:00,
2013-10-17 12:57:00,87.9,78.2,29.85,East,84,7.0,10.0,73,0.00,,,0.00,VWS V14.01,2013-10-17 18:57:00,
2013-10-17 13:00:00,87.7,78.0,29.84,ENE,77,3.0,10.0,73,0.00,,,0.00,VWS V15.00,2013-10-17 19:00:00,
2013-10-17 13:02:00,87.8,78.1,29.84,East,101,4.0,7.0,73,0.00,,,0.00,VWS V14.01,2013-10-17 19:02:00,
2013-10-17 13:07:00,87.5,76.5,29.84,East,91,4.0,12.0,70,0.00,,,0.00,VWS V14.01,2013-10-17 19:07:00,
2013-10-17 13:12:00,87.8,77.7,29.84,ENE,64,2.0,12.0,72,0.00,,,0.00,VWS V14.01,2013-10-17 19:12:00,
2013-10-17 13:17:00,87.7,78.4,29.84,NE,47,0.0,12.0,74,0.00,,,0.00,VWS V14.01,2013-10-17 19:17:00,
2013-10-17 13:22:00,88.3,77.7,29.83,WNW,287,3.0,12.0,71,0.00,,,0.00,VWS V14.01,2013-10-17 19:22:00,
2013-10-17 13:27:00,88.8,77.3,29.83,East,96,2.0,12.0,69,0.00,,,0.00,VWS V14.01,2013-10-17 19:27:00,
2013-10-17 13:30:00,89.2,78.1,29.83,NW,304,5.0,12.0,70,0.00,,,0.00,VWS V15.00,2013-10-17 19:30:00,
2013-10-17 13:31:00,89.2,78.6,29.83,ENE,63,0.0,7.0,71,0.00,,,0.00,VWS V14.01,2013-10-17 19:31:00,
2013-10-17 13:36:00,89.1,78.5,29.83,ENE,57,3.0,7.0,71,0.00,,,0.00,VWS V14.01,2013-10-17 19:36:00,
2013-10-17 13:41:00,88.8,78.2,29.82,ENE,57,3.0,9.0,71,0.00,,,0.00,VWS V14.01,2013-10-17 19:41:00,
2013-10-17 13:46:00,88.6,78.8,29.82,NNW,338,4.0,9.0,73,0.00,,,0.00,VWS V14.01,2013-10-17 19:46:00,
2013-10-17 13:51:00,88.8,79.0,29.82,ENE,72,0.0,9.0,73,0.00,,,0.00,VWS V14.01,2013-10-17 19:51:00,
2013-10-17 13:56:00,89.0,78.8,29.82,WNW,302,0.0,9.0,72,0.00,,,0.00,VWS V14.01,2013-10-17 19:56:00,
2013-10-17 14:00:00,89.0,77.9,29.82,North,352,3.0,9.0,70,0.00,,,0.00,VWS V15.00,2013-10-17 20:00:00,
2013-10-17 14:01:00,88.9,77.8,29.82,NNE,23,1.0,10.0,70,0.00,,,0.00,VWS V14.01,2013-10-17 20:01:00,
2013-10-17 14:06:00,89.0,77.9,29.82,NE,52,7.0,10.0,70,0.00,,,0.00,VWS V14.01,2013-10-17 20:06:00,
2013-10-17 14:11:00,88.4,77.8,29.82,NNE,20,7.0,10.0,71,0.00,,,0.00,VWS V14.01,2013-10-17 20:11:00,
2013-10-17 14:16:00,89.1,78.5,29.82,NNE,27,0.0,10.0,71,0.00,,,0.00,VWS V14.01,2013-10-17 20:16:00,
2013-10-17 14:21:00,89.4,77.9,29.82,ENE,74,4.0,10.0,69,0.00,,,0.00,VWS V14.01,2013-10-17 20:21:00,
2013-10-17 14:26:00,88.8,78.6,29.82,NNW,340,2.0,12.0,72,0.00,,,0.00,VWS V14.01,2013-10-17 20:26:00,
2013-10-17 14:30:00,88.4,78.7,29.82,NE,56,3.0,12.0,73,0.00,,,0.00,VWS V15.00,2013-10-17 20:30:00,
2013-10-17 14:31:00,88.3,79.0,29.82,NW,319,5.0,6.0,74,0.00,,,0.00,VWS V14.01,2013-10-17 20:31:00,
2013-10-17 14:36:00,88.2,78.4,29.82,NNW,327,1.0,8.0,73,0.00,,,0.00,VWS V14.01,2013-10-17 20:36:00,
2013-10-17 14:41:00,88.3,78.6,29.82,NNE,25,1.0,9.0,73,0.00,,,0.00,VWS V14.01,2013-10-17 20:41:00,
2013-10-17 14:46:00,88.2,78.4,29.82,North,3,6.0,10.0,73,0.00,,,0.00,VWS V14.01,2013-10-17 20:46:00,
2013-10-17 14:51:00,88.2,78.0,29.82,WNW,285,7.0,10.0,72,0.00,,,0.00,VWS V14.01,2013-10-17 20:51:00,
2013-10-17 14:56:00,88.3,78.6,29.81,North,1,6.0,10.0,73,0.00,,,0.00,VWS V14.01,2013-10-17 20:56:00,
2013-10-17 15:00:00,88.2,78.9,29.81,NNW,341,3.0,10.0,74,0.00,,,0.00,VWS V15.00,2013-10-17 21:00:00,
2013-10-17 15:01:00,88.2,78.4,29.81,NW,325,7.0,10.0,73,0.00,,,0.00,VWS V14.01,2013-10-17 21:01:00,
2013-10-17 15:06:00,87.9,79.4,29.81,NNW,342,3.0,11.0,76,0.00,,,0.00,VWS V14.01,2013-10-17 21:06:00,
2013-10-17 15:11:00,88.1,79.2,29.81,ENE,63,4.0,11.0,75,0.00,,,0.00,VWS V14.01,2013-10-17 21:11:00,
2013-10-17 15:16:00,87.9,79.0,29.81,NE,50,4.0,11.0,75,0.00,,,0.00,VWS V14.01,2013-10-17 21:16:00,
2013-10-17 15:21:00,88.1,78.4,29.81,North,354,0.0,11.0,73,0.00,,,0.00,VWS V14.01,2013-10-17 21:21:00,
2013-10-17 15:26:00,88.2,78.4,29.81,NE,51,1.0,11.0,73,0.00,,,0.00,VWS V14.01,2013-10-17 21:26:00,
2013-10-17 15:30:00,88.4,78.2,29.81,East,79,2.0,11.0,72,0.00,,,0.00,VWS V15.00,2013-10-17 21:30:00,
2013-10-17 15:31:00,88.3,77.7,29.81,NNE,29,5.0,6.0,71,0.00,,,0.00,VWS V14.01,2013-10-17 21:31:00,
2013-10-17 15:36:00,88.1,77.9,29.81,NNE,27,8.0,8.0,72,0.00,,,0.00,VWS V14.01,2013-10-17 21:36:00,
2013-10-17 15:41:00,88.1,78.4,29.81,NNW,339,3.0,8.0,73,0.00,,,0.00,VWS V14.01,2013-10-17 21:41:00,
2013-10-17 15:46:00,87.6,77.9,29.82,WNW,294,2.0,8.0,73,0.00,,,0.00,VWS V14.01,2013-10-17 21:46:00,
2013-10-17 15:51:00,87.0,78.1,29.82,ENE,70,3.0,8.0,75,0.00,,,0.00,VWS V14.01,2013-10-17 21:51:00,
2013-10-17 15:56:00,87.3,78.4,29.82,NW,326,1.0,8.0,75,0.00,,,0.00,VWS V14.01,2013-10-17 21:56:00,
2013-10-17 16:00:00,87.4,78.5,29.82,East,83,2.0,9.0,75,0.00,,,0.00,VWS V15.00,2013-10-17 22:00:00,
2013-10-17 16:01:00,87.4,78.5,29.82,NE,45,6.0,6.0,75,0.00,,,0.00,VWS V14.01,2013-10-17 22:01:00,
2013-10-17 16:06:00,87.5,78.6,29.82,NW,319,5.0,9.0,75,0.00,,,0.00,VWS V14.01,2013-10-17 22:06:00,
2013-10-17 16:11:00,87.3,78.0,29.83,NNE,12,1.0,9.0,74,0.00,,,0.00,VWS V14.01,2013-10-17 22:11:00,
2013-10-17 16:16:00,86.8,78.3,29.83,ENE,61,4.0,11.0,76,0.00,,,0.00,VWS V14.01,2013-10-17 22:16:00,
2013-10-17 16:21:00,86.7,78.2,29.83,NNW,345,5.0,12.0,76,0.00,,,0.00,VWS V14.01,2013-10-17 22:21:00,
2013-10-17 16:26:00,86.5,78.4,29.83,NW,319,0.0,12.0,77,0.00,,,0.00,VWS V14.01,2013-10-17 22:26:00,
2013-10-17 16:30:00,86.2,78.2,29.83,NNW,348,6.0,12.0,77,0.00,,,0.00,VWS V15.00,2013-10-17 22:30:00,
2013-10-17 16:31:00,86.1,78.1,29.83,NNE,32,4.0,5.0,77,0.00,,,0.00,VWS V14.01,2013-10-17 22:31:00,
2013-10-17 16:36:00,85.6,78.0,29.83,NE,54,5.0,6.0,78,0.00,,,0.00,VWS V14.01,2013-10-17 22:36:00,
2013-10-17 16:41:00,85.3,77.7,29.83,East,97,0.0,7.0,78,0.00,,,0.00,VWS V14.01,2013-10-17 22:41:00,
2013-10-17 16:46:00,85.0,77.8,29.83,North,358,3.0,7.0,79,0.00,,,0.00,VWS V14.01,2013-10-17 22:46:00,
2013-10-17 16:51:00,84.9,78.0,29.83,NNW,342,0.0,7.0,80,0.00,,,0.00,VWS V14.01,2013-10-17 22:51:00,
2013-10-17 16:56:00,84.8,77.9,29.83,NE,37,0.0,7.0,80,0.00,,,0.00,VWS V14.01,2013-10-17 22:56:00,
2013-10-17 17:00:00,84.6,77.8,29.83,NNE,19,0.0,7.0,80,0.00,,,0.00,VWS V15.00,2013-10-17 23:00:00,
2013-10-17 17:01:00,84.6,77.8,29.83,North,4,0.0,0.0,80,0.00,,,0.00,VWS V14.01,2013-10-17 23:01:00,
2013-10-17 17:06:00,84.5,77.7,29.83,NE,38,2.0,5.0,80,0.00,,,0.00,VWS V14.01,2013-10-17 23:06:00,
2013-10-17 17:11:00,84.3,77.5,29.83,ENE,68,3.0,5.0,80,0.00,,,0.00,VWS V14.01,2013-10-17 23:11:00,
2013-10-17 17:16:00,84.2,77.7,29.83,North,3,1.0,5.0,81,0.00,,,0.00,VWS V14.01,2013-10-17 23:16:00,
2013-10-17 17:21:00,84.0,77.5,29.83,NNE,22,1.0,5.0,81,0.00,,,0.00,VWS V14.01,2013-10-17 23:21:00,
2013-10-17 17:26:00,83.9,77.4,29.83,NW,321,0.0,5.0,81,0.00,,,0.00,VWS V14.01,2013-10-17 23:26:00,
2013-10-17 17:30:00,83.8,77.7,29.83,NE,38,4.0,7.0,82,0.00,,,0.00,VWS V15.00,2013-10-17 23:30:00,
2013-10-17 17:31:00,83.7,77.6,29.83,NNE,15,0.0,4.0,82,0.00,,,0.00,VWS V14.01,2013-10-17 23:31:00,
2013-10-17 17:36:00,83.7,77.6,29.83,NNW,348,1.0,7.0,82,0.00,,,0.00,VWS V14.01,2013-10-17 23:36:00,
2013-10-17 17:41:00,83.6,77.5,29.83,ESE,102,3.0,7.0,82,0.00,,,0.00,VWS V14.01,2013-10-17 23:41:00,
2013-10-17 17:46:00,83.7,77.6,29.83,North,4,5.0,7.0,82,0.00,,,0.00,VWS V14.01,2013-10-17 23:46:00,
2013-10-17 17:51:00,83.6,77.5,29.84,NE,34,0.0,7.0,82,0.00,,,0.00,VWS V14.01,2013-10-17 23:51:00,
2013-10-17 17:56:00,83.6,77.9,29.84,NW,310,0.0,7.0,83,0.00,,,0.00,VWS V14.01,2013-10-17 23:56:00,
2013-10-17 18:00:00,83.6,77.9,29.84,ENE,72,4.0,7.0,83,0.00,,,0.00,VWS V15.00,2013-10-18 00:00:00,
2013-10-17 18:01:00,83.6,77.9,29.84,NNW,344,2.0,4.0,83,0.00,,,0.00,VWS V14.01,2013-10-18 00:01:00,
2013-10-17 18:06:00,83.5,77.4,29.84,NNE,15,2.0,7.0,82,0.00,,,0.00,VWS V14.01,2013-10-18 00:06:00,
2013-10-17 18:11:00,83.5,77.4,29.84,NE,34,0.0,7.0,82,0.00,,,0.00,VWS V14.01,2013-10-18 00:11:00,
2013-10-17 18:16:00,83.5,77.4,29.84,North,11,1.0,7.0,82,0.00,,,0.00,VWS V14.01,2013-10-18 00:16:00,
2013-10-17 18:21:00,83.4,77.3,29.84,ENE,57,2.0,7.0,82,0.00,,,0.00,VWS V14.01,2013-10-18 00:21:00,
2013-10-17 18:26:00,83.4,77.3,29.84,ENE,63,0.0,7.0,82,0.00,,,0.00,VWS V14.01,2013-10-18 00:26:00,
2013-10-17 18:30:00,83.4,77.3,29.85,ENE,66,6.0,7.0,82,0.00,,,0.00,VWS V15.00,2013-10-18 00:30:00,
2013-10-17 18:31:00,83.4,77.3,29.85,NE,39,3.0,6.0,82,0.00,,,0.00,VWS V14.01,2013-10-18 00:31:00,
2013-10-17 18:36:00,83.3,77.2,29.85,NNE,12,3.0,6.0,82,0.00,,,0.00,VWS V14.01,2013-10-18 00:36:00,
2013-10-17 18:41:00,83.4,77.3,29.85,ENE,60,3.0,6.0,82,0.00,,,0.00,VWS V14.01,2013-10-18 00:41:00,
2013-10-17 18:46:00,83.4,77.0,29.85,NNE,20,2.0,6.0,81,0.00,,,0.00,VWS V14.01,2013-10-18 00:46:00,
2013-10-17 18:51:00,83.3,76.9,29.86,NE,46,2.0,6.0,81,0.00,,,0.00,VWS V14.01,2013-10-18 00:51:00,
2013-10-17 18:56:00,83.3,76.9,29.86,North,5,2.0,6.0,81,0.00,,,0.00,VWS V14.01,2013-10-18 00:56:00,
2013-10-17 19:00:00,83.3,76.9,29.87,ENE,70,2.0,8.0,81,0.00,,,0.00,VWS V15.00,2013-10-18 01:00:00,
2013-10-17 19:01:00,83.3,76.9,29.87,NNE,30,4.0,4.0,81,0.00,,,0.00,VWS V14.01,2013-10-18 01:01:00,
2013-10-17 19:06:00,83.3,76.9,29.86,NNE,18,3.0,6.0,81,0.00,,,0.00,VWS V14.01,2013-10-18 01:06:00,
2013-10-17 19:11:00,83.3,76.9,29.87,NE,54,0.0,6.0,81,0.00,,,0.00,VWS V14.01,2013-10-18 01:11:00,
2013-10-17 19:16:00,83.2,76.8,29.87,North,8,4.0,6.0,81,0.00,,,0.00,VWS V14.01,2013-10-18 01:16:00,
2013-10-17 19:21:00,83.2,76.8,29.87,NE,37,1.0,6.0,81,0.00,,,0.00,VWS V14.01,2013-10-18 01:21:00,
2013-10-17 19:26:00,83.2,76.8,29.87,NE,56,1.0,6.0,81,0.00,,,0.00,VWS V14.01,2013-10-18 01:26:00,
2013-10-17 19:30:00,83.1,76.7,29.87,North,5,0.0,6.0,81,0.00,,,0.00,VWS V15.00,2013-10-18 01:30:00,
2013-10-17 19:31:00,83.2,76.8,29.87,NNW,338,0.0,0.0,81,0.00,,,0.00,VWS V14.01,2013-10-18 01:31:00,
2013-10-17 19:36:00,83.2,76.8,29.87,North,8,3.0,3.0,81,0.00,,,0.00,VWS V14.01,2013-10-18 01:36:00,
2013-10-17 19:41:00,83.0,76.6,29.87,NE,56,1.0,5.0,81,0.00,,,0.00,VWS V14.01,2013-10-18 01:41:00,
2013-10-17 19:46:00,83.0,76.9,29.88,NNE,21,2.0,5.0,82,0.00,,,0.00,VWS V14.01,2013-10-18 01:46:00,
2013-10-17 19:51:00,83.1,77.0,29.88,NNE,20,2.0,5.0,82,0.00,,,0.00,VWS V14.01,2013-10-18 01:51:00,
2013-10-17 19:56:00,83.0,76.9,29.88,NNE,23,2.0,5.0,82,0.00,,,0.00,VWS V14.01,2013-10-18 01:56:00,
2013-10-17 20:00:00,83.0,77.3,29.88,North,360,1.0,6.0,83,0.00,,,0.00,VWS V15.00,2013-10-18 02:00:00,
2013-10-17 20:01:00,83.1,77.4,29.88,North,360,0.0,1.0,83,0.00,,,0.00,VWS V14.01,2013-10-18 02:01:00,
2013-10-17 20:06:00,83.1,77.4,29.88,NNE,23,0.0,8.0,83,0.00,,,0.00,VWS V14.01,2013-10-18 02:06:00,
2013-10-17 20:11:00,83.1,77.4,29.88,NE,51,2.0,8.0,83,0.00,,,0.00,VWS V14.01,2013-10-18 02:11:00,
2013-10-17 20:16:00,83.0,77.3,29.89,NNE,23,3.0,8.0,83,0.00,,,0.00,VWS V14.01,2013-10-18 02:16:00,
2013-10-17 20:21:00,83.1,77.0,29.89,NE,49,1.0,8.0,82,0.00,,,0.00,VWS V14.01,2013-10-18 02:21:00,
2013-10-17 20:26:00,83.2,77.1,29.89,NNE,23,3.0,8.0,82,0.00,,,0.00,VWS V14.01,2013-10-18 02:26:00,
2013-10-17 20:30:00,83.3,76.9,29.89,NE,37,2.0,8.0,81,0.00,,,0.00,VWS V15.00,2013-10-18 02:30:00,
2013-10-17 20:31:00,83.3,76.9,29.89,ENE,59,3.0,3.0,81,0.00,,,0.00,VWS V14.01,2013-10-18 02:31:00,
2013-10-17 20:36:00,83.4,77.0,29.90,NNE,18,1.0,6.0,81,0.00,,,0.00,VWS V14.01,2013-10-18 02:36:00,
2013-10-17 20:41:00,83.4,77.3,29.90,NE,50,1.0,10.0,82,0.00,,,0.00,VWS V14.01,2013-10-18 02:41:00,
2013-10-17 20:46:00,83.4,77.3,29.90,NE,34,3.0,10.0,82,0.00,,,0.00,VWS V14.01,2013-10-18 02:46:00,
2013-10-17 20:51:00,83.4,77.3,29.90,ENE,68,1.0,10.0,82,0.00,,,0.00,VWS V14.01,2013-10-18 02:51:00,
2013-10-17 20:56:00,83.4,77.3,29.90,ENE,62,0.0,10.0,82,0.00,,,0.00,VWS V14.01,2013-10-18 02:56:00,
2013-10-17 21:00:00,83.5,77.8,29.90,ENE,65,1.0,10.0,83,0.00,,,0.00,VWS V15.00,2013-10-18 03:00:00,
2013-10-17 21:01:00,83.5,77.8,29.90,NE,51,3.0,3.0,83,0.00,,,0.00,VWS V14.01,2013-10-18 03:01:00,
2013-10-17 21:06:00,83.5,77.8,29.90,NE,46,6.0,8.0,83,0.00,,,0.00,VWS V14.01,2013-10-18 03:06:00,
2013-10-17 21:11:00,83.5,78.2,29.90,NNW,333,1.0,10.0,84,0.00,,,0.00,VWS V14.01,2013-10-18 03:11:00,
2013-10-17 21:16:00,83.6,78.3,29.90,NE,48,4.0,10.0,84,0.00,,,0.00,VWS V14.01,2013-10-18 03:16:00,
2013-10-17 21:21:00,83.4,77.7,29.90,NE,54,6.0,12.0,83,0.00,,,0.00,VWS V14.01,2013-10-18 03:21:00,
2013-10-17 21:26:00,83.0,75.8,29.90,NNE,29,1.0,12.0,79,0.00,,,0.00,VWS V14.01,2013-10-18 03:26:00,
2013-10-17 21:30:00,82.9,75.3,29.90,ENE,69,2.0,12.0,78,0.00,,,0.00,VWS V15.00,2013-10-18 03:30:00,
2013-10-17 21:31:00,82.9,75.3,29.90,NE,49,5.0,5.0,78,0.00,,,0.00,VWS V14.01,2013-10-18 03:31:00,
2013-10-17 21:36:00,83.0,76.2,29.90,NE,35,3.0,7.0,80,0.00,,,0.00,VWS V14.01,2013-10-18 03:36:00,
2013-10-17 21:41:00,83.2,77.5,29.90,NE,41,3.0,7.0,83,0.00,,,0.00,VWS V14.01,2013-10-18 03:41:00,
2013-10-17 21:46:00,83.3,78.3,29.90,ENE,72,4.0,7.0,85,0.00,,,0.00,VWS V14.01,2013-10-18 03:46:00,
2013-10-17 21:51:00,83.3,78.3,29.90,ENE,65,5.0,7.0,85,0.00,,,0.00,VWS V14.01,2013-10-18 03:51:00,
2013-10-17 21:56:00,83.5,78.2,29.90,ENE,72,4.0,10.0,84,0.00,,,0.00,VWS V14.01,2013-10-18 03:56:00,
2013-10-17 22:00:00,83.7,78.0,29.90,NNE,12,8.0,10.0,83,0.00,,,0.00,VWS V15.00,2013-10-18 04:00:00,
2013-10-17 22:01:00,83.7,78.0,29.90,NE,51,7.0,7.0,83,0.00,,,0.00,VWS V14.01,2013-10-18 04:01:00,
2013-10-17 22:06:00,83.9,77.4,29.90,ENE,67,7.0,10.0,81,0.00,,,0.00,VWS V14.01,2013-10-18 04:06:00,
2013-10-17 22:11:00,84.1,77.3,29.90,ENE,64,8.0,10.0,80,0.00,,,0.00,VWS V14.01,2013-10-18 04:11:00,
2013-10-17 22:16:00,84.1,77.6,29.89,NE,45,4.0,10.0,81,0.00,,,0.00,VWS V14.01,2013-10-18 04:16:00,
2013-10-17 22:21:00,84.1,77.6,29.89,ENE,65,3.0,11.0,81,0.00,,,0.00,VWS V14.01,2013-10-18 04:21:00,
2013-10-17 22:26:00,84.1,78.0,29.89,ENE,68,5.0,13.0,82,0.00,,,0.00,VWS V14.01,2013-10-18 04:26:00,
2013-10-17 22:30:00,84.1,77.3,29.89,NE,39,7.0,13.0,80,0.00,,,0.00,VWS V15.00,2013-10-18 04:30:00,
2013-10-17 22:31:00,84.1,76.9,29.89,ENE,67,9.0,9.0,79,0.00,,,0.00,VWS V14.01,2013-10-18 04:31:00,
2013-10-17 22:36:00,84.1,77.3,29.89,ENE,73,6.0,10.0,80,0.00,,,0.00,VWS V14.01,2013-10-18 04:36:00,
2013-10-17 22:41:00,83.9,77.8,29.89,NE,53,7.0,14.0,82,0.00,,,0.00,VWS V14.01,2013-10-18 04:41:00,
2013-10-17 22:46:00,83.6,77.9,29.89,ENE,62,6.0,14.0,83,0.00,,,0.00,VWS V14.01,2013-10-18 04:46:00,
2013-10-17 22:51:00,83.4,77.3,29.88,East,94,4.0,14.0,82,0.00,,,0.00,VWS V14.01,2013-10-18 04:51:00,
2013-10-17 22:56:00,83.4,77.0,29.88,ENE,58,8.0,14.0,81,0.00,,,0.00,VWS V14.01,2013-10-18 04:56:00,
2013-10-17 23:00:00,83.4,77.3,29.88,NE,56,8.0,14.0,82,0.00,,,0.00,VWS V15.00,2013-10-18 05:00:00,
2013-10-17 23:01:00,83.4,77.3,29.88,East,81,6.0,8.0,82,0.00,,,0.00,VWS V14.01,2013-10-18 05:01:00,
2013-10-17 23:06:00,83.4,77.7,29.88,ENE,61,3.0,12.0,83,0.00,,,0.00,VWS V14.01,2013-10-18 05:06:00,
2013-10-17 23:11:00,83.3,77.6,29.88,ENE,61,7.0,12.0,83,0.00,,,0.00,VWS V14.01,2013-10-18 05:11:00,
2013-10-17 23:16:00,83.4,77.7,29.87,ENE,72,4.0,12.0,83,0.00,,,0.00,VWS V14.01,2013-10-18 05:16:00,
2013-10-17 23:21:00,83.4,77.7,29.87,ENE,59,5.0,12.0,83,0.00,,,0.00,VWS V14.01,2013-10-18 05:21:00,
2013-10-17 23:26:00,83.4,77.7,29.87,NE,41,6.0,12.0,83,0.00,,,0.00,VWS V14.01,2013-10-18 05:26:00,
2013-10-17 23:30:00,83.5,78.2,29.87,ENE,65,6.0,12.0,84,0.00,,,0.00,VWS V15.00,2013-10-18 05:30:00,
2013-10-17 23:31:00,83.5,78.2,29.87,ENE,63,5.0,6.0,84,0.00,,,0.00,VWS V14.01,2013-10-18 05:31:00,
2013-10-17 23:36:00,83.5,78.2,29.87,ENE,65,9.0,11.0,84,0.00,,,0.00,VWS V14.01,2013-10-18 05:36:00,
2013-10-17 23:41:00,83.5,78.2,29.86,East,94,8.0,11.0,84,0.00,,,0.00,VWS V14.01,2013-10-18 05:41:00,
2013-10-17 23:46:00,83.4,78.1,29.86,NNE,29,7.0,13.0,84,0.00,,,0.00,VWS V14.01,2013-10-18 05:46:00,
2013-10-17 23:51:00,83.3,77.6,29.86,East,83,6.0,13.0,83,0.00,,,0.00,VWS V14.01,2013-10-18 05:51:00,
2013-10-17 23:56:00,83.2,77.9,29.86,ENE,58,4.0,13.0,84,0.00,,,0.00,VWS V14.01,2013-10-18 05:56:00,